Tracking 22779 objects as of 12-Apr-2021
HD Live streaming from Space Station
objects crossing your sky now

COSMOS 1934 DEB

Track COSMOS 1934 DEB now!
10-day predictions


NORAD ID: 21912
Int'l Code: 1988-023C
Perigee: 931.7 km
Apogee: 986.9 km
Inclination: 83.0 °
Period: 104.1 minutes
Semi major axis: 7330 km
RCS: 0.1428 m2 (medium)
Launch date: March 22, 1988
Source: Commonwealth of Independent States (former USSR) (CIS)
Launch site: PLESETSK MISSILE AND SPACE COMPLEX (PKMTR)

Note: This is SATELLITE DEBRIS
aabbcc
Your satellite tracking list
Your tracking list is empty




NASA's NSSDC Master Catalog

Two Line Element Set (TLE):
1 21912U 88023C   21101.89131255  .00000137  00000-0  10955-3 0  9999
2 21912  82.9562  65.2756 0037600 176.3768 246.0975 13.83309860539937
Source of the keplerian elements: AFSPC